Parsons, KS

1:09 AM CDT on May 28, 2017 (GMT -0500)
Tri-City

Weather History for KPPF - October, 2012

Change the Weather History Date:

Tuesday, October 30, 2012

  Actual Average Record
Temperature  
Mean Temperature 52 °F -  
Max Temperature 69 °F 64 °F 90 °F (1950)
Min Temperature 34 °F 44 °F 24 °F (1993)
Degree Days  
Heating Degree Days 14    
Growing Degree Days 2 (Base 50)    
Moisture  
Dew Point 34 °F    
Average Humidity 57    
Maximum Humidity 85    
Minimum Humidity 32    
Precipitation  
Precipitation 0.00 in - - ()
Sea Level Pressure  
Sea Level Pressure 30.01 in    
Wind  
Wind Speed 2 mph (ESE)    
Max Wind Speed 8 mph    
Max Gust Speed -    
Visibility 10 miles    
Events      
Averages and records for this station are not official NWS values.
T = Trace of Precipitation, MM = Missing Value Source: NWS Daily Summary

Daily Weather History Graph

Daily Weather History Graph

Search for Another Location

Airport or City:

Trip Planner

Search our weather history database for the weather conditions in past years. The results will help you decide how hot, cold, wet, or windy it might be!

Date:

Astronomy

Oct. 30, 2012 Rise Set
Actual Time 7:45 AM CDT 6:25 PM CDT
Civil Twilight 7:18 AM CDT 6:52 PM CDT
Nautical Twilight 6:47 AM CDT 7:23 PM CDT
Astronomical Twilight 6:17 AM CDT 7:53 PM CDT
Moon 6:57 PM CDT (10/30) 8:31 AM CDT (10/30)
Length of Visible Light 11h 34m
Length of Day
10h 40m
Full, 99% of the Moon is Illuminated
Oct 30
Full
Nov 6
Last Quarter
Nov 13
New
Nov 20
First Quarter
Nov 28
Full

Hourly Weather History & Observations

Time (CDT) Temp. Windchill Dew Point Humidity Pressure Visibility Wind Dir Wind Speed Gust Speed Precip Events Conditions
12:52 AM 37.0 °F - 30.0 °F 76% 30.10 in 10.0 mi Calm Calm - N/A   Clear
1:52 AM 41.0 °F 39.0 °F 30.0 °F 65% 30.09 in 10.0 mi East 3.5 mph - N/A   Clear
2:52 AM 36.0 °F - 30.0 °F 79% 30.09 in 10.0 mi Calm Calm - N/A   Clear
3:52 AM 35.1 °F - 30.0 °F 82% 30.08 in 10.0 mi Calm Calm - N/A   Clear
4:52 AM 34.0 °F - 30.0 °F 85% 30.06 in 10.0 mi Calm Calm - N/A   Clear
5:52 AM 36.0 °F - 30.0 °F 79% 30.06 in 10.0 mi Calm Calm - N/A   Clear
6:52 AM 41.0 °F 39.0 °F 30.9 °F 67% 30.05 in 10.0 mi SE 3.5 mph - N/A   Clear
8:52 AM 46.0 °F 43.1 °F 33.1 °F 61% 30.04 in 10.0 mi South 5.8 mph - N/A   Scattered Clouds
9:52 AM 48.9 °F - 33.1 °F 54% 30.03 in 10.0 mi South 4.6 mph - N/A   Overcast
10:52 AM 53.1 °F - 34.0 °F 48% 30.01 in 10.0 mi South 8.1 mph - N/A   Mostly Cloudy
11:52 AM 60.1 °F - 36.0 °F 41% 30.00 in 10.0 mi Variable 4.6 mph - N/A   Partly Cloudy
12:52 PM 62.1 °F - 35.1 °F 37% 29.99 in 10.0 mi Calm Calm - N/A   Clear
1:52 PM 66.0 °F - 36.0 °F 33% 29.94 in 10.0 mi Calm Calm - N/A   Partly Cloudy
2:52 PM 69.1 °F - 37.9 °F 32% 29.93 in 10.0 mi Variable 4.6 mph - N/A   Clear
3:52 PM 64.9 °F - 39.0 °F 39% 29.94 in 10.0 mi Variable 5.8 mph - N/A   Clear
4:52 PM 64.0 °F - 39.0 °F 40% 29.94 in 10.0 mi ENE 6.9 mph - N/A   Clear
6:52 PM 55.9 °F - 37.9 °F 51% 29.95 in 10.0 mi ENE 3.5 mph - N/A   Clear
7:52 PM 53.1 °F - 37.9 °F 57% 29.96 in 10.0 mi NE 5.8 mph - N/A   Clear
8:52 PM 52.0 °F - 37.0 °F 57% 29.98 in 10.0 mi Variable 3.5 mph - N/A   Clear
9:52 PM 50.0 °F - 35.1 °F 57% 29.99 in 10.0 mi Calm Calm - N/A   Clear
10:52 PM 48.0 °F - 34.0 °F 58% 29.99 in 10.0 mi Calm Calm - N/A   Clear
11:52 PM 46.0 °F 43.1 °F 33.1 °F 61% 29.99 in 10.0 mi NE 5.8 mph - N/A   Clear